Location: Blangy-Tronville
(49.8790°N, 2.4226°E)
Time: 21:50:08
(UTC+00:00)

Okean 2 Rocket - Pass Details

Date: 18 November 2025
Orbit: 611 x 635 km, 82.5° (Epoch: 10 December)

Event Time Altitude Azimuth Distance (km) Brightness Sun altitude
Rises 17:11:36 0° 152° (SSE) 2,885 6.4 -11.0°
Reaches altitude 10° 17:14:11 10° 138° (SE) 1,981 5.4 -11.4°
Maximum altitude 17:17:35 22° 87° (E) 1,343 4.2 -11.9°
Enters shadow 17:20:03 14° 45° (NE) 1,708 4.8 -12.3°
